EW7961 Weather Reports


Display with metric or nautical units.
time (UTC)temp
F
wind
direction
speed
MPH
gust
MPH
rain 1hr
in
rain 24hr
in
rain mn
in
humidity
%
barometer
mb
20260510174018 66 317 1.0 4.0 0.00 0.03 0.03 43 1019.5
20260510173018 66 309 2.0 5.0 0.00 0.03 0.03 42 1019.4
20260510172018 66 304 2.0 6.0 0.00 0.03 0.03 40 1019.3
20260510171019 67 322 1.0 3.0 0.00 0.03 0.03 39 1019.3
20260510170019 67 303 1.0 4.0 0.00 0.03 0.03 39 1019.3
20260510165022 67 288 1.0 5.0 0.00 0.03 0.03 39 1019.4
20260510164019 67 285 2.0 5.0 0.00 0.03 0.03 38 1019.7
20260510163022 67 288 3.0 7.0 0.00 0.03 0.03 38 1019.6
20260510162025 66 306 1.0 3.0 0.00 0.03 0.03 39 1019.7
20260510161105 67 251 1.0 2.0 0.00 0.03 0.03 39 1019.5
20260510160040 67 317 2.0 4.0 0.00 0.03 0.03 37 1019.6
20260510155026 66 279 1.0 3.0 0.00 0.03 0.03 39 1019.4
20260510154025 66 297 1.0 3.0 0.00 0.03 0.03 41 1019.2
20260510153026 66 322 1.0 2.0 0.00 0.03 0.03 43 1019.0
20260510152026 66 306 2.0 4.0 0.00 0.03 0.03 44 1018.9
20260510151026 66 312 2.0 4.0 0.00 0.03 0.03 45 1018.9
20260510150023 66 317 1.0 4.0 0.00 0.03 0.03 45 1018.9
20260510145026 65 314 2.0 5.0 0.00 0.03 0.03 46 1018.7
20260510144026 64 319 2.0 3.0 0.00 0.03 0.03 49 1018.3
20260510143026 63 315 2.0 3.0 0.00 0.03 0.03 50 1018.2
20260510142026 63 5 2.0 3.0 0.00 0.03 0.03 52 1018.0
20260510141026 62 340 1.0 2.0 0.00 0.03 0.03 55 1018.2
20260510140018 62 356 2.0 5.0 0.00 0.03 0.03 55 1018.1
20260510135027 61 279 1.0 2.0 0.00 0.03 0.03 59 1018.3
20260510134027 61 5 2.0 4.0 0.00 0.03 0.03 59 1018.6
20260510133027 61 350 3.0 5.0 0.00 0.03 0.03 61 1018.4
20260510132027 61 300 3.0 4.0 0.00 0.03 0.03 62 1018.2
20260510131027 61 335 3.0 4.0 0.00 0.03 0.03 62 1018.1
20260510130027 60 309 3.0 4.0 0.00 0.03 0.03 63 1017.9
20260510125027 60 312 3.0 4.0 0.00 0.03 0.03 64 1017.7
20260510124203 60 289 3.0 4.0 0.00 0.03 0.03 67 1017.8
20260510123027 59 264 3.0 4.0 0.00 0.03 0.03 67 1017.7
20260510122108 59 271 3.0 4.0 0.00 0.03 0.03 69 1017.6
20260510121108 58 281 3.0 5.0 0.00 0.03 0.03 70 1017.6
20260510120108 58 301 3.0 4.0 0.00 0.03 0.03 72 1017.2
20260510115019 58 276 4.0 6.0 0.00 0.03 0.03 74 1016.9
20260510114019 58 247 4.0 5.0 0.00 0.03 0.03 76 1016.6
20260510113019 58 284 4.0 6.0 0.00 0.03 0.03 79 1016.3
20260510112059 57 342 5.0 9.0 0.00 0.03 0.03 84 1016.1
20260510111029 57 254 4.0 5.0 0.00 0.03 0.03 89 1016.1
20260510110019 57 274 4.0 5.0 0.00 0.03 0.03 92 1016.1
20260510105028 58 285 4.0 5.0 0.00 0.03 0.03 93 1016.0
20260510104029 58 245 4.0 4.0 0.00 0.03 0.03 93 1015.9
20260510103029 58 275 4.0 4.0 0.00 0.03 0.03 93 1015.8
20260510102029 58 246 4.0 4.0 0.00 0.03 0.03 93 1015.7
20260510101029 59 246 3.0 4.0 0.00 0.03 0.03 93 1015.7
20260510100029 59 241 4.0 4.0 0.00 0.03 0.03 93 1015.5
20260510095109 59 254 3.0 4.0 0.00 0.03 0.03 93 1015.4
20260510094029 59 256 3.0 4.0 0.00 0.03 0.03 93 1015.6
20260510093110 59 244 4.0 4.0 0.00 0.03 0.03 92 1015.5
20260510092110 58 247 4.0 4.0 0.00 0.03 0.03 92 1015.4
20260510091110 59 243 4.0 4.0 0.00 0.03 0.03 91 1015.0
20260510090030 59 236 4.0 4.0 0.00 0.03 0.03 91 1014.8
20260510085030 59 241 4.0 4.0 0.00 0.03 0.03 91 1014.6
20260510084030 59 242 3.0 4.0 0.00 0.03 0.03 90 1014.4
20260510083030 0 249 3.0 4.0 0.00 0.03 0.03
20260510082110 59 243 3.0 4.0 0.00 0.03 0.03 90 1014.2
20260510081031 60 242 3.0 4.0 0.00 0.03 0.03 89 1013.9
20260510080031 0 254 3.0 4.0 0.00 0.03 0.03
20260510075031 60 260 3.0 4.0 0.00 0.03 0.03 88 1013.6
20260510074031 60 254 3.0 4.0 0.00 0.03 0.03 87 1013.6
20260510073046 61 249 3.0 3.0 0.00 0.03 0.03 87 1013.3
20260510072031 61 268 2.0 3.0 0.00 0.03 0.03 87 1013.3
20260510071031 61 18 2.0 3.0 0.00 0.03 0.03 88 1013.3
20260510070020 61 270 2.0 3.0 0.00 0.03 0.03 88 1013.3
20260510065020 62 327 2.0 3.0 0.00 0.03 0.03 89 1013.4
20260510064020 62 327 3.0 4.0 0.00 0.03 0.03 89 1013.6
20260510063017 62 349 2.0 5.0 0.00 0.03 0.03 90 1013.4
20260510062017 62 343 2.0 4.0 0.01 0.03 0.03 91 1013.3
20260510061020 63 321 2.0 3.0 0.01 0.03 0.03 91 1012.8
20260510060021 63 290 2.0 3.0 0.01 0.03 0.03 91 1013.1
20260510055020 62 281 2.0 3.0 0.01 0.02 0.02 90 1013.2
20260510054017 62 328 1.0 2.0 0.01 0.02 0.02 90 1013.0
20260510053058 62 272 2.0 3.0 0.01 0.02 0.02 89 1012.8
20260510052018 62 293 2.0 3.0 0.01 0.02 0.02 89 1013.0
20260510051018 62 297 2.0 3.0 0.01 0.02 0.02 89 1013.2
20260510050018 62 322 1.0 3.0 0.01 0.01 0.01 88 1013.5
20260510045019 62 329 2.0 6.0 0.01 0.01 0.01 88 1013.2
20260510044019 62 351 2.0 4.0 0.01 0.01 0.01 87 1013.1
20260510043019 63 1 2.0 6.0 0.01 0.01 0.01 87 1012.7
20260510042019 63 335 2.0 4.0 0.01 0.01 0.01 86 1013.1
20260510041019 64 316 3.0 8.0 0.01 0.02 0.01 84 1013.3
20260510040019 65 281 4.0 13.0 0.00 0.03 0.00 83 1013.2
20260510035059 67 305 4.0 10.0 0.00 0.05 0.00 77 1013.2
20260510034017 70 263 4.0 11.0 0.00 0.08 0.00 65 1012.8
20260510033019 70 274 2.0 3.0 0.00 0.12 0.00 63 1011.0
20260510032019 70 278 2.0 2.0 0.00 0.17 0.00 60 1010.8
20260510031019 70 274 1.0 2.0 0.00 0.20 0.00 60 1010.7
20260510030018 70 281 2.0 2.0 0.00 0.24 0.00 59 1010.4
20260510025058 70 280 1.0 2.0 0.00 0.29 0.00 60 1010.4
20260510024020 70 282 1.0 2.0 0.00 0.32 0.00 58 1010.3
20260510023020 70 282 1.0 2.0 0.00 0.33 0.00 56 1010.2
20260510022022 71 282 1.0 2.0 0.00 0.35 0.00 56 1010.1
20260510021018 71 282 1.0 2.0 0.00 0.35 0.00 55 1009.9
20260510020017 72 277 1.0 2.0 0.00 0.35 0.00 54 1009.6
20260510015021 72 281 1.0 2.0 0.00 0.35 0.00 53 1009.4
20260510014018 73 280 2.0 2.0 0.00 0.35 0.00 51 1009.4
20260510013139 74 289 2.0 2.0 0.00 0.35 0.00 50 1009.3
20260510012058 75 275 2.0 3.0 0.00 0.35 0.00 47 1009.2
20260510011018 76 295 2.0 2.0 0.00 0.35 0.00 46 1009.1
20260510010018 77 279 1.0 2.0 0.00 0.35 0.00 44 1009.1
20260510005019 78 289 1.0 2.0 0.00 0.35 0.00 42 1008.9
20260510004018 79 276 2.0 2.0 0.00 0.35 0.00 40 1008.8
20260510003019 81 272 2.0 2.0 0.00 0.36 0.00 39 1008.7
20260510002059 82 274 2.0 4.0 0.00 0.36 0.00 37 1008.6
20260510001019 83 265 2.0 4.0 0.00 0.36 0.00 36 1008.5
20260510000633 81 275 2.0 3.0 0.00 0.36 0.00 38 1008.5
20260509235019 81 263 2.0 4.0 0.00 0.36 0.00 38 1008.5
20260509234016 82 270 2.0 4.0 0.00 0.36 0.00 38 1008.5
20260509232019 85 262 2.0 4.0 0.00 0.36 0.00 38 1008.3
20260509231019 87 266 3.0 4.0 0.00 0.36 0.00 36 1008.4
20260509230019 86 275 2.0 3.0 0.00 0.36 0.00 37 1008.4
20260509225019 86 269 3.0 5.0 0.00 0.36 0.36 36 1008.3
20260509224017 86 271 3.0 8.0 0.00 0.36 0.36 36 1008.3
20260509223016 86 271 3.0 6.0 0.00 0.36 0.36 35 1008.4
20260509222020 85 274 3.0 6.0 0.00 0.36 0.36 36 1008.4
20260509221101 85 266 2.0 5.0 0.00 0.36 0.36 35 1008.4
20260509220020 85 268 3.0 7.0 0.00 0.36 0.36 35 1008.3
20260509215017 85 270 3.0 5.0 0.00 0.36 0.36 36 1008.4
20260509214017 84 265 3.0 7.0 0.00 0.36 0.36 36 1008.5
20260509213018 84 270 3.0 7.0 0.00 0.36 0.36 37 1008.5
20260509212018 84 274 3.0 8.0 0.00 0.36 0.36 38 1008.5
20260509211021 83 276 3.0 5.0 0.00 0.36 0.36 37 1008.6
20260509210058 83 266 3.0 6.0 0.00 0.36 0.36 38 1008.7
20260509205018 82 269 2.0 4.0 0.00 0.36 0.36 39 1008.7
20260509204018 82 261 3.0 9.0 0.00 0.36 0.36 37 1008.8
20260509203018 82 266 4.0 6.0 0.00 0.36 0.36 39 1008.9
20260509202018 81 267 2.0 4.0 0.00 0.36 0.36 42 1008.9
20260509201019 81 254 4.0 8.0 0.00 0.36 0.36 42 1009.0
20260509200018 80 258 3.0 7.0 0.00 0.36 0.36 43 1009.0
20260509195019 80 261 3.0 7.0 0.00 0.36 0.36 41 1009.0
20260509194019 80 253 3.0 8.0 0.00 0.36 0.36 42 1009.0
20260509193019 79 258 3.0 9.0 0.00 0.36 0.36 43 1009.1
20260509192018 79 271 3.0 7.0 0.00 0.36 0.36 44 1009.1
20260509191019 80 265 4.0 7.0 0.00 0.36 0.36 43 1009.3
20260509190016 80 261 3.0 8.0 0.00 0.36 0.36 46 1009.3
20260509185019 79 256 3.0 6.0 0.00 0.36 0.36 48 1009.3
20260509184019 79 270 3.0 6.0 0.00 0.36 0.36 47 1009.3
20260509183023 79 274 3.0 5.0 0.00 0.36 0.36 48 1009.2
20260509182020 78 270 3.0 6.0 0.00 0.36 0.36 48 1009.2
20260509181020 77 260 3.0 7.0 0.00 0.36 0.36 49 1009.3
20260509180017 77 252 2.0 5.0 0.00 0.36 0.36 51 1009.4
20260509175017 76 269 3.0 5.0 0.00 0.36 0.36 52 1009.5